FW1140 Weather Reports


Display with metric or nautical units.
time (UTC)temp
F
wind
direction
speed
MPH
gust
MPH
rain 1hr
in
rain 24hr
in
rain mn
in
humidity
%
barometer
mb
20260901074603 60 195 1.0 3.0 0.00 0.00 0.00 88 1009.3
20260901073018 61 172 1.0 5.0 0.00 0.00 0.00 88 1009.4
20260901071514 61 199 0.0 3.0 0.00 0.00 0.00 88 1009.3
20260901070026 61 212 1.0 4.0 0.00 0.00 0.00 87 1009.3
20260901064523 62 233 0.0 7.0 0.00 0.00 0.00 86 1009.4
20260901063026 62 204 1.0 4.0 0.00 0.00 0.00 86 1009.4
20260901061611 62 225 0.0 3.0 0.00 0.00 0.00 85 1009.6
20260901060005 62 243 1.0 3.0 0.00 0.00 0.00 84 1009.8
20260901054549 63 220 1.0 4.0 0.00 0.00 0.00 83 1009.7
20260901053121 63 236 2.0 5.0 0.00 0.00 0.00 83 1009.8
20260901051550 63 275 2.0 5.0 0.00 0.00 0.00 83 1009.9
20260901050006 63 212 1.0 3.0 0.00 0.00 0.00 83 1009.7
20260901044525 63 217 0.0 3.0 0.00 0.00 0.00 83 1009.8
20260901043022 65 39 0.0 5.0 0.00 0.00 0.00 79 1009.8
20260901041525 65 250 1.0 3.0 0.00 0.00 0.00 79 1009.5
20260901040028 66 250 1.0 4.0 0.00 0.00 0.00 76 1009.2
20260901034557 66 236 1.0 4.0 0.00 0.00 0.00 77 1009.0
20260901033055 68 240 3.0 7.0 0.00 0.00 0.00 74 1008.8
20260901031527 68 276 2.0 6.0 0.00 0.00 0.00 76 1008.8
20260901030013 66 233 1.0 4.0 0.00 0.00 0.00 81 1008.9
20260901024502 65 248 1.0 3.0 0.00 0.00 0.00 83 1008.9
20260901023029 65 238 0.0 3.0 0.00 0.00 0.00 82 1008.8
20260901021503 64 231 1.0 3.0 0.00 0.00 0.00 82 1008.6
20260901020006 65 236 0.0 2.0 0.00 0.00 0.00 82 1008.4
20260901014524 66 236 0.0 3.0 0.00 0.00 0.00 81 1008.2
20260901013025 67 259 1.0 3.0 0.00 0.00 0.00 79 1007.9
20260901011558 67 231 0.0 4.0 0.00 0.00 0.00 78 1007.9
20260901010013 69 233 1.0 3.0 0.00 0.00 0.00 74 1007.9
20260901004538 71 231 0.0 3.0 0.00 0.00 0.00 70 1007.8
20260901003044 72 201 0.0 3.0 0.00 0.00 0.00 67 1007.8
20260901001548 74 216 1.0 4.0 0.00 0.00 0.00 61 1007.8
20260901000037 77 186 0.0 3.0 0.00 0.00 0.00 56 1007.8
20260831234547 78 165 1.0 3.0 0.00 0.00 0.00 54 1007.7
20260831233105 0 0.0 0.0 0.00 0.00 0.00 1008.1
20260831231533 0 0.0 0.0 0.00 0.00 0.00 1008.1
20260831230104 0 0.0 0.0 0.00 0.00 0.00 1008.1
20260831224558 0 0.0 0.0 0.00 0.00 0.00 1008.0
20260831223025 0 0.0 0.0 0.00 0.00 0.00 1008.0
20260831221519 85 216 1.0 7.0 0.00 0.00 0.00 42 1008.0
20260831220052 86 198 2.0 6.0 0.00 0.00 0.00 38 1007.9
20260831214509 85 236 2.0 6.0 0.00 0.00 0.00 38 1008.0
20260831213105 85 251 2.0 5.0 0.00 0.00 0.00 35 1007.9
20260831211525 87 269 2.0 6.0 0.00 0.00 0.00 36 1007.9
20260831210017 89 290 2.0 6.0 0.00 0.00 0.00 38 1008.0
20260831204555 89 273 2.0 7.0 0.00 0.00 0.00 38 1008.0
20260831203034 87 276 3.0 7.0 0.00 0.00 0.00 30 1008.1
20260831201517 87 203 3.0 8.0 0.00 0.00 0.00 38 1008.2
20260831200038 89 252 3.0 9.0 0.00 0.00 0.00 39 1008.2
20260831194523 88 259 3.0 10.0 0.00 0.00 0.00 37 1008.2
20260831193011 89 248 3.0 6.0 0.00 0.00 0.00 41 1008.2
20260831191535 88 257 1.0 6.0 0.00 0.00 0.00 44 1008.4
20260831190012 88 308 2.0 6.0 0.00 0.00 0.00 46 1008.4
20260831184504 87 350 2.0 6.0 0.00 0.00 0.00 47 1008.4
20260831183010 85 37 1.0 5.0 0.00 0.00 0.00 47 1008.3
20260831181509 86 57 2.0 5.0 0.00 0.00 0.00 47 1008.3
20260831180037 84 298 2.0 6.0 0.00 0.00 0.00 50 1008.4
20260831174550 84 330 1.0 5.0 0.00 0.00 0.00 48 1008.4
20260831173049 83 360 1.0 5.0 0.00 0.00 0.00 45 1008.6
20260831171526 82 311 1.0 5.0 0.00 0.00 0.00 49 1008.7
20260831170044 81 335 1.0 6.0 0.00 0.00 0.00 51 1008.8
20260831164505 79 290 3.0 6.0 0.00 0.00 0.00 49 1008.8
20260831163033 78 326 3.0 7.0 0.00 0.00 0.00 56 1008.7
20260831161550 74 345 2.0 7.0 0.00 0.00 0.00 60 1008.9
20260831160002 77 335 5.0 9.0 0.00 0.00 0.00 59 1008.9
20260831154531 75 285 4.0 8.0 0.00 0.00 0.00 63 1008.7
20260831153049 75 331 5.0 11.0 0.00 0.00 0.00 66 1008.7
20260831151542 74 274 5.0 10.0 0.00 0.00 0.00 65 1008.5
20260831150046 72 354 5.0 12.0 0.00 0.00 0.00 70 1008.5
20260831144557 72 330 4.0 9.0 0.00 0.00 0.00 71 1008.6
20260831143059 71 340 4.0 9.0 0.00 0.00 0.00 74 1008.5
20260831141525 70 324 3.0 7.0 0.00 0.00 0.00 78 1008.5
20260831140042 69 307 3.0 9.0 0.00 0.00 0.00 78 1008.4
20260831134530 69 288 3.0 6.0 0.00 0.00 0.00 77 1008.0
20260831133014 69 331 4.0 11.0 0.00 0.00 0.00 76 1007.5
20260831131516 68 316 5.0 10.0 0.00 0.00 0.00 78 1007.0
20260831130016 67 296 4.0 10.0 0.00 0.00 0.00 79 1007.1
20260831124523 66 300 4.0 9.0 0.00 0.00 0.00 79 1007.1
20260831123043 65 292 3.0 7.0 0.00 0.00 0.00 80 1006.9
20260831121523 65 259 2.0 7.0 0.00 0.00 0.00 81 1006.6
20260831120032 64 289 2.0 5.0 0.00 0.00 0.00 82 1006.3
20260831114518 64 295 1.0 5.0 0.00 0.00 0.00 80 1005.8
20260831113032 65 307 2.0 6.0 0.00 0.00 0.00 79 1005.6
20260831111525 66 329 2.0 7.0 0.00 0.00 0.00 76 1005.3
20260831110058 67 291 3.0 7.0 0.00 0.00 0.00 75 1005.1
20260831104527 68 288 3.0 7.0 0.00 0.00 0.00 75 1004.8
20260831103027 69 287 3.0 8.0 0.00 0.00 0.00 76 1004.6
20260831101512 69 238 4.0 10.0 0.00 0.00 0.00 76 1004.4
20260831100012 70 309 4.0 11.0 0.00 0.00 0.00 79 1004.3
20260831094530 70 294 4.0 10.0 0.00 0.00 0.00 82 1004.0
20260831093051 70 252 5.0 10.0 0.00 0.00 0.00 83 1003.9
20260831091602 70 287 4.0 11.0 0.00 0.00 0.00 86 1003.9
20260831090049 70 283 4.0 8.0 0.00 0.00 0.00 90 1003.6
20260831084606 70 268 2.0 7.0 0.00 0.00 0.00 91 1003.7
20260831083019 0 0.0 0.0 0.00 0.00 0.00 1003.5
20260831081557 0 0.0 0.0 0.00 0.00 0.00 1003.4
20260831080005 0 0.0 0.0 0.00 0.00 0.00 1003.1